PBO Station Position Time Series. Reference Frame : NAM14
Format Version,1.1.0
4-character ID,P070
Station name,WagonMoundNM2007
Begin Date, 2007-03-23
End Date, 2019-10-07
Release Date, 2019-10-08
Reference position, 36.0447801002 North Latitude, -104.6980003191 East Longitude, 1883.53034 meters elevation,
Date, North (mm), East (mm), Vertical (mm), North Std. Deviation (mm), East Std. Deviation (mm),              Vertical Std. Deviation (mm), Quality,
2007-03-23,0.00, 0.00, 0.00, 1.99, 1.69, 7.55, repro,
2007-03-24,0.45, -2.28, 6.52, 1.96, 1.64, 7.41, repro,
2007-03-25,0.02, -2.15, 8.22, 1.93, 1.59, 7.22, repro,
2007-03-26,1.15, -2.30, 8.85, 1.96, 1.63, 7.38, repro,
2007-03-27,0.46, -2.98, 10.72, 1.99, 1.60, 7.45, repro,
2007-03-28,0.49, -2.08, 11.11, 2.01, 1.63, 7.55, repro,
2007-03-29,1.13, -1.68, 10.51, 1.96, 1.62, 7.37, repro,
2007-03-30,1.65, -1.76, -0.10, 1.93, 1.59, 7.25, repro,
2007-03-31,0.48, -2.07, 7.37, 1.93, 1.59, 7.22, repro,
2007-04-01,1.17, -2.80, 6.95, 1.96, 1.63, 7.40, repro,
2007-04-02,1.93, -2.15, 10.72, 1.95, 1.60, 7.33, repro,
2007-04-03,1.63, -3.75, 1.85, 2.02, 1.67, 7.59, repro,
2007-04-04,1.02, -2.06, -2.76, 2.01, 1.66, 7.55, repro,
2007-04-05,1.94, -2.10, -0.46, 2.04, 1.65, 7.64, repro,
2007-04-06,1.08, -2.66, 1.62, 2.05, 1.72, 7.85, repro,
2007-04-07,1.13, -1.26, 4.35, 1.98, 1.63, 7.42, repro,
2007-04-08,1.37, -2.17, 7.38, 1.95, 1.59, 7.33, repro,
2007-04-09,0.77, -1.24, 9.05, 1.94, 1.58, 7.29, repro,
2007-04-10,1.00, -1.39, 19.38, 1.96, 1.63, 7.40, repro,
2007-04-11,0.49, -1.73, 16.22, 1.94, 1.60, 7.30, repro,
2007-04-12,1.28, -1.80, 11.97, 1.95, 1.58, 7.26, repro,
2007-04-13,1.22, -3.60, 8.00, 1.95, 1.59, 7.31, repro,
2007-04-14,1.81, -2.33, 3.02, 1.97, 1.59, 7.30, repro,
2007-04-15,0.71, -2.19, 8.52, 1.94, 1.59, 7.26, repro,
2007-04-16,0.71, -0.90, 9.96, 1.95, 1.59, 7.32, repro,
2007-04-17,0.44, -1.91, 11.71, 1.95, 1.59, 7.28, repro,
2007-04-18,1.46, -2.46, 11.97, 1.96, 1.59, 7.26, repro,
2007-04-19,0.96, -2.39, 13.90, 1.95, 1.59, 7.27, repro,
2007-04-20,1.42, -1.59, 11.36, 1.94, 1.59, 7.28, repro,
2007-04-21,1.51, -1.50, 10.67, 1.93, 1.57, 7.19, repro,
2007-04-22,0.68, -2.49, 12.66, 1.94, 1.59, 7.27, repro,
2007-04-23,1.65, -1.76, 8.12, 1.96, 1.62, 7.30, repro,
2007-04-24,1.87, -2.01, 12.74, 1.98, 1.64, 7.41, repro,
2007-04-25,1.33, -2.22, 8.71, 1.95, 1.63, 7.32, repro,
2007-04-26,1.52, -1.79, 8.61, 1.93, 1.58, 7.21, repro,
2007-04-27,1.45, -1.55, 3.33, 1.95, 1.58, 7.24, repro,
2007-04-28,1.14, -2.22, 1.87, 1.95, 1.58, 7.25, repro,
2007-04-29,0.65, -1.31, 2.21, 1.96, 1.59, 7.29, repro,
2007-04-30,1.13, -1.66, 8.04, 1.96, 1.60, 7.34, repro,
2007-05-01,1.69, -1.86, 5.30, 1.93, 1.58, 7.19, repro,
2007-05-02,0.08, -2.15, 1.17, 1.98, 1.62, 7.38, repro,
2007-05-03,-0.50, -1.48, 7.06, 2.07, 1.66, 7.75, repro,
2007-05-04,1.90, -0.43, 11.19, 1.95, 1.58, 7.27, repro,
2007-05-05,-0.24, -1.38, 15.06, 1.99, 1.63, 7.47, repro,
2007-05-06,1.28, -1.42, 9.25, 1.94, 1.59, 7.23, repro,
2007-05-07,0.58, -2.26, 5.92, 1.93, 1.59, 7.25, repro,
2007-05-08,1.61, -1.65, 3.45, 1.94, 1.58, 7.21, repro,
2007-05-09,1.08, -1.96, 1.14, 1.99, 1.64, 7.53, repro,
2007-05-10,1.22, -1.40, 0.95, 2.10, 1.69, 7.89, repro,
2007-05-11,0.45, -1.61, -0.58, 2.04, 1.65, 7.54, repro,
2007-05-12,1.01, -2.09, 6.17, 1.95, 1.59, 7.25, repro,
2007-05-13,0.64, -1.73, 2.79, 1.98, 1.62, 7.48, repro,
2007-05-14,1.26, -1.26, 3.02, 2.02, 1.65, 7.53, repro,
2007-05-15,1.71, -1.48, 2.11, 1.96, 1.59, 7.30, repro,
2007-05-16,0.71, -1.51, 1.41, 1.95, 1.59, 7.25, repro,
2007-05-17,2.66, -1.64, -3.46, 1.96, 1.65, 7.36, repro,
2007-05-18,1.01, -1.78, -5.50, 2.01, 1.69, 7.66, repro,
2007-05-19,0.91, -2.67, -7.77, 2.02, 1.67, 7.72, repro,
2007-05-20,1.29, -0.45, 1.72, 2.00, 1.62, 7.50, repro,
2007-05-21,0.80, -1.16, 7.37, 1.95, 1.58, 7.20, repro,
2007-05-22,-0.37, -0.44, 14.84, 1.96, 1.58, 7.23, repro,
2007-05-23,1.57, -1.02, 9.90, 1.97, 1.59, 7.28, repro,
2007-05-24,1.96, -1.83, 1.51, 2.00, 1.63, 7.51, repro,
2007-05-25,-0.64, -2.93, 4.44, 1.96, 1.60, 7.25, repro,
2007-05-26,1.19, -1.89, -0.32, 2.03, 1.64, 7.62, repro,
2007-05-27,2.21, -1.36, 3.89, 2.00, 1.65, 7.46, repro,
2007-05-28,0.52, -2.04, 4.26, 1.95, 1.59, 7.25, repro,
2007-05-29,1.74, -1.94, 2.07, 2.01, 1.63, 7.44, repro,
2007-05-30,1.15, -1.68, 6.71, 1.99, 1.62, 7.30, repro,
2007-05-31,1.44, -1.43, -1.69, 1.99, 1.63, 7.46, repro,
2007-06-01,1.51, -2.28, 3.50, 2.05, 1.76, 7.68, repro,
2007-06-02,0.85, -2.17, 8.09, 1.99, 1.65, 7.39, repro,
2007-06-03,1.07, -1.95, 11.58, 2.10, 1.75, 8.00, repro,
2007-06-04,1.13, -2.74, 4.03, 1.94, 1.61, 7.26, repro,
2007-06-05,1.74, -1.99, 8.67, 1.98, 1.63, 7.37, repro,
2007-06-06,0.05, -1.51, 15.23, 1.92, 1.59, 7.15, repro,
2007-06-07,1.87, -1.39, 17.70, 1.93, 1.60, 7.21, repro,
2007-06-08,1.24, -2.44, 6.76, 1.94, 1.61, 7.25, repro,
2007-06-09,-0.75, -3.27, -1.86, 1.97, 1.64, 7.40, repro,
2007-06-10,0.98, -1.90, 0.32, 1.92, 1.59, 7.13, repro,
2007-06-11,-0.04, -1.12, 11.27, 2.40, 2.07, 9.26, repro,
2007-06-12,2.30, -2.90, 2.96, 2.04, 1.74, 7.80, repro,
2007-06-13,-0.49, -2.18, 5.75, 1.96, 1.66, 7.40, repro,
2007-06-14,1.16, -0.91, 2.53, 1.96, 1.66, 7.43, repro,
2007-06-15,1.64, -1.67, 1.01, 1.94, 1.62, 7.27, repro,
2007-06-16,0.46, -0.64, 6.40, 1.96, 1.61, 7.30, repro,
2007-06-17,-0.63, -1.80, 10.46, 2.20, 1.85, 8.31, repro,
2007-06-18,-1.38, -2.31, 13.48, 1.93, 1.61, 7.26, repro,
2007-06-19,-0.14, -1.45, 2.40, 1.93, 1.61, 7.21, repro,
2007-06-20,0.26, -2.05, 2.35, 1.93, 1.61, 7.23, repro,
2007-06-21,0.40, -0.93, 11.30, 1.93, 1.61, 7.19, repro,
2007-06-22,-0.41, -1.71, 3.41, 1.93, 1.61, 7.24, repro,
2007-06-23,1.30, -0.88, 10.52, 2.25, 1.83, 8.41, repro,
2007-06-24,-0.70, -1.31, 11.80, 2.07, 1.73, 7.71, repro,
2007-06-25,-1.02, -1.01, 12.25, 1.94, 1.60, 7.22, repro,
2007-06-26,0.18, -1.63, -4.65, 2.33, 1.84, 8.74, repro,
2007-06-27,-0.49, -1.23, 2.97, 1.95, 1.61, 7.25, repro,
2007-06-28,0.59, -0.81, -3.61, 2.00, 1.69, 7.51, repro,
2007-06-29,-0.05, -0.22, 3.66, 1.95, 1.65, 7.42, repro,
2007-06-30,0.56, -1.10, 5.90, 1.94, 1.61, 7.24, repro,
2007-07-01,0.10, -0.74, 8.39, 1.99, 1.64, 7.50, repro,
2007-07-02,-0.63, 0.02, 5.35, 2.12, 1.75, 7.90, repro,
2007-07-03,-1.47, 0.11, 3.34, 2.23, 1.89, 8.47, repro,
2007-07-04,0.01, -1.48, 9.30, 1.93, 1.61, 7.20, repro,
2007-07-05,-2.15, -1.04, -0.80, 1.94, 1.61, 7.22, repro,
2007-07-06,-0.89, -2.72, 3.79, 1.99, 1.66, 7.43, repro,
2007-07-07,0.39, -0.56, 5.75, 1.95, 1.61, 7.25, repro,
2007-07-08,-1.71, -1.53, 16.40, 1.95, 1.60, 7.22, repro,
2007-07-09,0.04, -2.01, 9.09, 1.95, 1.61, 7.24, repro,
2007-07-10,-1.46, -0.86, 7.81, 2.05, 1.76, 7.65, repro,
2007-07-11,-1.07, -2.06, 1.49, 1.96, 1.60, 7.28, repro,
2007-07-12,0.43, -1.22, 7.05, 1.98, 1.65, 7.36, repro,
2007-07-13,-0.69, -1.46, -2.33, 2.03, 1.62, 7.51, repro,
2007-07-14,-0.37, -3.01, 8.52, 2.00, 1.64, 7.43, repro,
2007-07-15,-0.27, -1.48, 5.83, 1.99, 1.67, 7.37, repro,
2007-07-16,-0.78, -2.64, 7.51, 1.99, 1.67, 7.40, repro,
2007-07-17,0.85, -2.33, 3.76, 1.94, 1.62, 7.26, repro,
2007-07-18,-1.20, 0.10, 9.11, 2.13, 1.77, 8.01, repro,
2007-07-19,0.26, -1.14, 7.81, 1.95, 1.60, 7.19, repro,
2007-07-20,-0.30, -1.55, 9.20, 1.98, 1.67, 7.36, repro,
2007-07-21,0.20, -0.75, 6.41, 2.02, 1.72, 7.67, repro,
2007-07-22,-1.41, -0.95, 4.10, 1.98, 1.66, 7.34, repro,
2007-07-23,0.31, 0.13, 9.15, 2.05, 1.72, 7.63, repro,
2007-07-24,0.01, -0.41, 9.80, 2.02, 1.68, 7.51, repro,
2007-07-25,-0.14, -0.79, 5.76, 2.00, 1.66, 7.35, repro,
2007-07-26,-0.31, -1.40, 11.33, 2.01, 1.68, 7.53, repro,
2007-07-27,-0.80, -1.99, 5.20, 1.97, 1.66, 7.34, repro,
2007-07-28,1.80, -2.62, -0.87, 1.98, 1.66, 7.37, repro,
2007-07-29,-0.98, 0.29, 11.20, 2.02, 1.69, 7.55, repro,
2007-07-30,-1.38, -1.75, 4.99, 2.20, 1.91, 8.48, repro,
2007-07-31,-0.11, -0.91, 13.25, 1.99, 1.68, 7.45, repro,
2007-08-01,-0.11, -0.89, 10.49, 2.03, 1.72, 7.65, repro,
2007-08-02,-1.29, -2.82, 2.47, 2.01, 1.68, 7.63, repro,
2007-08-03,1.06, -1.28, 4.29, 1.94, 1.64, 7.40, repro,
2007-08-04,0.36, -1.87, 5.50, 1.97, 1.65, 7.47, repro,
2007-08-05,0.81, -2.52, 13.95, 2.14, 1.80, 8.15, repro,
2007-08-06,-0.15, -2.32, 5.56, 2.11, 1.76, 8.03, repro,
2007-08-07,-1.09, -1.98, 10.87, 1.98, 1.68, 7.48, repro,
2007-08-08,1.64, -1.31, 5.04, 1.94, 1.63, 7.35, repro,
2007-08-09,0.56, -1.02, 12.20, 1.93, 1.63, 7.31, repro,
2007-08-10,-0.30, -2.02, 6.02, 2.17, 1.73, 8.18, repro,
2007-08-11,0.28, -2.23, 7.42, 1.96, 1.65, 7.44, repro,
2007-08-12,0.42, -0.70, 3.81, 1.97, 1.66, 7.46, repro,
2007-08-13,0.36, -0.93, 8.28, 1.96, 1.64, 7.35, repro,
2007-08-14,-0.52, -1.30, 5.75, 2.14, 1.79, 8.26, repro,
2007-08-15,-1.24, -1.44, 10.13, 2.14, 1.76, 8.16, repro,
2007-08-16,-0.48, -1.69, 13.38, 2.09, 1.72, 7.91, repro,
2007-08-17,1.11, -0.33, 9.75, 2.19, 1.73, 8.27, repro,
2007-08-18,0.75, -0.76, 5.29, 2.16, 1.83, 8.30, repro,
2007-08-19,0.78, -0.61, 15.09, 2.11, 1.82, 8.20, repro,
2007-08-20,0.31, -0.53, 13.46, 2.12, 1.80, 8.14, repro,
2007-08-21,0.87, -1.21, 14.35, 2.10, 1.76, 7.90, repro,
2007-08-22,0.93, -2.23, 20.75, 2.21, 1.89, 8.53, repro,
2007-08-23,-2.70, 0.06, 14.36, 2.18, 1.90, 8.76, repro,
2007-08-24,-0.60, -0.05, 20.37, 2.62, 2.23, 10.62, repro,
2007-08-25,-1.51, 0.49, 19.68, 2.23, 1.96, 8.79, repro,
2007-08-26,-2.40, -2.50, 3.60, 2.29, 2.04, 9.41, repro,
2007-08-27,-0.26, -0.67, 15.09, 2.22, 1.91, 8.61, repro,
2007-08-28,0.13, -0.67, 15.83, 2.15, 1.86, 8.34, repro,
2007-08-29,1.45, 0.44, 10.70, 2.38, 2.09, 9.49, repro,
2007-08-30,-0.27, -1.46, 3.53, 2.21, 1.90, 8.70, repro,
2007-08-31,1.37, -1.49, 10.17, 2.27, 1.99, 9.01, repro,
2007-09-01,-1.35, -0.47, 5.19, 2.26, 1.99, 8.93, repro,
2007-09-02,1.74, 1.57, 6.74, 2.26, 2.01, 9.00, repro,
2007-09-03,0.84, 0.37, 10.47, 2.39, 2.02, 9.27, repro,
2007-09-04,0.22, 0.65, 9.69, 2.32, 2.02, 9.35, repro,
2007-09-05,-1.54, 0.29, 8.33, 2.46, 2.11, 9.93, repro,
2007-09-06,-0.21, 1.31, 19.00, 2.28, 2.04, 9.18, repro,
2007-09-07,2.60, 0.44, 11.15, 2.26, 2.01, 9.00, repro,
2007-09-08,1.20, -0.08, 6.92, 2.36, 2.08, 9.41, repro,
2007-09-09,-0.96, 0.15, 15.30, 2.25, 1.92, 8.58, repro,
2007-09-10,0.74, 0.35, 18.48, 2.39, 2.08, 9.64, repro,
2007-09-11,1.44, -0.34, 6.49, 2.40, 2.10, 9.64, repro,
2007-09-12,1.79, 0.21, 8.52, 2.35, 1.96, 9.07, repro,
2007-09-13,1.25, -0.39, 3.50, 2.42, 2.03, 9.33, repro,
2007-09-14,-1.14, -1.23, 3.23, 2.19, 1.82, 8.18, repro,
2007-09-15,2.18, 1.56, 6.82, 2.24, 1.92, 8.51, repro,
2007-09-16,1.69, -1.17, 3.09, 2.45, 2.01, 9.29, repro,
2007-09-17,-0.79, -2.77, 17.78, 2.44, 2.20, 10.07, repro,
2007-09-18,-1.16, -1.86, 18.22, 2.44, 2.24, 10.20, repro,
2007-09-19,1.37, -0.52, 10.16, 2.37, 2.05, 9.73, repro,
2007-09-20,3.45, 0.54, 7.14, 2.67, 2.45, 11.56, repro,
2007-09-21,2.13, -3.89, 7.21, 2.63, 2.37, 11.12, repro,
2007-09-22,1.77, -2.20, -0.53, 2.64, 2.35, 11.34, repro,
2007-09-23,2.21, -2.70, 15.89, 2.58, 2.25, 10.61, repro,
2007-09-24,1.10, -1.11, 21.21, 2.75, 2.37, 11.45, repro,
2007-09-25,2.30, -4.44, 6.51, 2.75, 2.42, 11.76, repro,
2007-09-26,1.64, -1.33, 5.67, 2.59, 2.30, 11.06, repro,
2007-09-27,2.01, -1.91, 9.10, 2.58, 2.37, 11.26, repro,
2007-09-28,2.05, -0.52, 17.91, 2.75, 2.40, 11.80, repro,
2007-09-29,4.13, 0.06, 16.48, 2.68, 2.39, 11.75, repro,
2007-09-30,0.73, -2.13, 8.48, 2.83, 2.55, 12.48, repro,
2007-10-01,1.43, -0.79, 10.72, 2.80, 2.55, 12.54, repro,
2007-10-02,0.46, -2.19, 9.12, 2.66, 2.43, 11.64, repro,
2007-10-03,2.01, -3.33, 5.59, 2.76, 2.54, 12.21, repro,
2007-10-04,2.15, -2.18, 14.66, 2.69, 2.51, 11.77, repro,
2007-10-05,2.96, -3.57, 16.95, 2.68, 2.39, 11.48, repro,
2007-10-06,0.90, -2.77, 20.11, 2.67, 2.48, 11.88, repro,
2007-10-07,2.52, -1.33, 7.50, 2.84, 2.53, 12.45, repro,
2007-10-08,1.72, -3.85, 1.85, 3.29, 3.05, 14.78, repro,
2007-10-09,-0.41, -5.81, 3.29, 5.28, 4.41, 23.91, repro,
2007-10-10,0.66, -2.74, 9.88, 3.17, 2.88, 14.37, repro,
2007-10-11,0.34, -2.41, 7.25, 2.61, 2.43, 11.49, repro,
2007-10-12,2.43, -0.83, 17.31, 2.73, 2.44, 12.12, repro,
2007-10-13,2.92, -0.61, 20.72, 2.49, 2.35, 10.95, repro,
2007-10-14,1.38, -1.06, 7.26, 2.72, 2.49, 11.85, repro,
2007-10-15,0.46, -4.34, -1.53, 2.71, 2.50, 12.18, repro,
2007-10-16,0.79, -2.83, 10.96, 2.62, 2.39, 11.56, repro,
2007-10-17,1.34, -4.71, 19.52, 2.79, 2.55, 12.21, repro,
2007-10-18,4.78, -3.69, 4.23, 5.36, 5.05, 24.12, repro,
2007-10-19,-0.38, -3.31, 7.94, 2.91, 2.77, 12.62, repro,
2007-10-20,3.29, -4.12, 16.92, 2.86, 2.55, 12.54, repro,
2007-10-21,1.02, -5.09, 7.64, 3.03, 2.63, 13.71, repro,
2007-10-22,1.89, -4.39, -1.59, 4.74, 4.12, 21.52, repro,
2007-10-23,2.51, -4.47, -4.82, 3.21, 2.88, 14.92, repro,
2007-10-24,0.36, -2.99, 3.72, 2.84, 2.69, 12.81, repro,
2007-10-25,1.77, -2.73, 6.37, 2.71, 2.40, 11.73, repro,
2007-10-26,-0.02, -2.24, -1.95, 2.71, 2.49, 12.09, repro,
2007-10-27,1.66, -1.52, -1.27, 2.78, 2.56, 12.30, repro,
2007-10-28,0.94, -2.71, -12.31, 2.77, 2.55, 12.26, repro,
2007-10-29,0.51, -3.26, 5.14, 2.73, 2.41, 11.90, repro,
2007-10-30,-0.32, -3.45, 3.97, 2.74, 2.41, 11.95, repro,
2007-10-31,1.10, -2.34, 0.71, 2.89, 2.61, 13.11, repro,
2007-11-01,2.79, -3.81, 1.45, 2.96, 2.69, 13.58, repro,
2007-11-02,1.76, -1.70, 7.15, 2.83, 2.50, 12.57, repro,
2007-11-03,0.35, -2.10, 3.30, 3.03, 2.78, 13.78, repro,
2007-11-04,0.89, -2.58, 8.81, 2.73, 2.55, 12.47, repro,
2007-11-05,0.59, -2.24, 6.65, 2.87, 2.54, 12.98, repro,
2007-11-06,1.01, -0.62, -1.23, 3.33, 2.98, 15.79, repro,
2007-11-07,-0.26, -0.55, 8.42, 3.79, 3.36, 17.19, repro,
2007-11-08,0.23, -1.40, 6.41, 2.97, 2.69, 13.30, repro,
2007-11-09,0.83, -1.69, 8.66, 2.64, 2.30, 11.24, repro,
2007-11-10,1.57, -1.74, 16.18, 2.99, 2.61, 13.67, repro,
2007-11-11,2.53, -2.60, -6.32, 4.22, 3.79, 19.75, repro,
2007-11-12,0.48, -1.62, 15.79, 3.04, 2.77, 13.76, repro,
2007-11-13,-0.97, -2.45, 9.00, 2.96, 2.66, 13.43, repro,
2007-11-14,0.56, -2.95, 12.44, 4.38, 3.66, 20.42, repro,
2007-11-15,3.03, -1.65, -14.64, 5.59, 5.14, 26.43, repro,
2007-11-16,2.54, -6.09, 25.36, 5.65, 5.34, 28.20, repro,
2007-11-17,-0.16, -1.58, 6.70, 3.71, 3.36, 17.00, repro,
2007-11-18,-0.63, -2.41, 12.19, 3.01, 2.67, 13.79, repro,
2007-11-19,0.67, -2.53, 16.42, 2.84, 2.57, 13.34, repro,
2007-11-20,1.05, -1.12, 4.89, 3.12, 2.92, 14.59, repro,
2007-11-21,1.16, -2.46, 20.95, 3.38, 3.02, 16.12, repro,
2007-11-22,3.30, 0.94, 6.84, 4.73, 4.14, 23.87, repro,
2007-11-23,-0.35, 1.97, 23.17, 4.77, 4.23, 24.02, repro,
2007-11-24,3.34, 0.03, 18.59, 5.05, 4.18, 23.47, repro,
2007-11-25,1.68, -0.96, 2.93, 5.21, 4.26, 23.27, repro,
2007-11-26,-3.09, 3.70, 13.43, 5.36, 5.78, 26.99, repro,
2007-11-27,0.35, -1.08, 3.61, 4.33, 3.76, 19.79, repro,
2007-11-28,-1.21, -3.36, 3.68, 7.44, 6.69, 31.57, repro,
2007-11-29,-3.96, -5.11, 0.45, 12.69, 9.41, 69.64, repro,
2007-11-30,2.28, -1.94, 11.80, 5.80, 5.64, 33.11, repro,
2007-12-01,-2.18, -1.77, 19.03, 8.31, 5.67, 32.45, repro,
2007-12-02,0.43, 3.23, 9.49, 5.37, 5.83, 32.93, repro,
2007-12-03,1.27, -4.06, -15.20, 6.41, 5.48, 29.51, repro,
2007-12-04,3.12, -1.76, -1.22, 5.36, 4.54, 27.81, repro,
2007-12-05,1.37, -1.96, 13.15, 3.91, 3.52, 17.73, repro,
2007-12-06,1.72, 1.07, 25.55, 3.21, 3.10, 15.40, repro,
2007-12-07,3.20, -3.58, 12.57, 3.34, 3.07, 15.26, repro,
2007-12-08,2.33, 5.07, 26.05, 5.68, 5.39, 32.36, repro,
2007-12-09,2.23, -0.19, 6.08, 3.77, 3.47, 18.78, repro,
2007-12-10,0.58, -2.15, 2.55, 3.65, 3.33, 18.40, repro,
2007-12-11,2.61, -0.14, -1.25, 4.38, 3.97, 21.19, repro,
2007-12-12,0.40, -1.39, 5.63, 5.02, 4.20, 24.20, repro,
2007-12-13,1.96, -0.13, 5.17, 5.94, 5.55, 31.30, repro,
2007-12-14,0.10, -1.91, 6.38, 1.98, 1.64, 7.36, repro,
2007-12-15,0.67, -1.85, 3.52, 2.01, 1.69, 7.57, repro,
2007-12-16,0.18, -0.51, 8.64, 2.00, 1.69, 7.57, repro,
2007-12-17,1.14, -1.34, 6.32, 1.98, 1.69, 7.55, repro,
2007-12-18,0.88, -1.54, 8.68, 1.97, 1.65, 7.40, repro,
2007-12-19,-0.28, -0.58, 11.33, 2.08, 1.69, 7.72, repro,
2007-12-20,0.39, -1.47, 9.22, 1.99, 1.65, 7.42, repro,
2007-12-21,-0.53, -1.09, 12.78, 2.14, 1.74, 7.89, repro,
2007-12-22,0.94, -1.84, 10.23, 2.11, 1.71, 7.92, repro,
2007-12-23,1.27, -2.08, -0.69, 2.01, 1.68, 7.60, repro,
2007-12-24,0.79, -1.76, 4.32, 2.07, 1.76, 7.90, repro,
2007-12-25,1.47, -1.89, 13.85, 2.04, 1.74, 7.77, repro,
2007-12-26,0.88, -1.65, 7.37, 2.00, 1.64, 7.48, repro,
2007-12-27,0.48, -1.58, 13.58, 1.99, 1.68, 7.38, repro,
2007-12-28,0.49, -1.80, 11.23, 2.03, 1.70, 7.61, repro,
2007-12-29,0.90, -2.19, 6.42, 1.98, 1.68, 7.40, repro,
2007-12-30,0.97, -2.58, 1.46, 2.03, 1.71, 7.60, repro,
2007-12-31,1.04, -0.97, 2.26, 1.98, 1.65, 7.42, repro,
2008-01-01,1.48, -1.41, -10.28, 1.96, 1.62, 7.30, repro,
2008-01-02,1.05, -1.24, -8.37, 1.96, 1.61, 7.30, repro,
2008-01-03,1.07, -1.10, -0.74, 2.00, 1.64, 7.32, repro,
2008-01-04,1.72, -2.08, 11.14, 1.93, 1.61, 7.17, repro,
2008-01-05,3.49, -4.61, 21.17, 1.95, 1.62, 7.22, repro,
2008-01-06,-0.00, 0.22, 15.15, 1.93, 1.61, 7.12, repro,
2008-01-07,0.25, -1.91, 12.99, 1.93, 1.60, 7.11, repro,
2008-01-08,0.65, -1.08, 5.57, 1.98, 1.62, 7.32, repro,
2008-01-09,0.42, -0.50, 10.83, 1.99, 1.63, 7.38, repro,
2008-01-10,0.42, -1.45, 12.17, 1.94, 1.61, 7.18, repro,
2008-01-11,2.03, -2.68, 9.38, 1.93, 1.63, 7.20, repro,
2008-01-12,0.35, -1.33, 7.14, 1.93, 1.62, 7.19, repro,
2008-01-13,0.69, -1.34, 3.25, 1.93, 1.62, 7.24, repro,
2008-01-14,1.24, -1.33, -0.35, 1.97, 1.66, 7.42, repro,
2008-01-15,0.84, -1.04, 8.68, 1.94, 1.63, 7.31, repro,
2008-01-16,0.54, -1.05, 7.44, 1.98, 1.64, 7.49, repro,
2008-01-17,0.19, -1.27, 6.36, 2.03, 1.66, 7.63, repro,
2008-01-18,0.59, -0.87, 6.19, 1.94, 1.67, 7.41, repro,
2008-01-19,0.80, -1.18, -3.99, 2.01, 1.68, 7.58, repro,
2008-01-20,0.65, -0.74, 3.08, 1.96, 1.64, 7.39, repro,
2008-01-21,1.15, -0.30, 2.32, 2.00, 1.68, 7.54, repro,
2008-01-22,1.01, -0.54, -0.14, 2.01, 1.68, 7.54, repro,
2008-01-23,0.42, -0.42, 2.97, 1.99, 1.67, 7.48, repro,
2008-01-24,-0.62, -1.99, 2.85, 1.99, 1.67, 7.47, repro,
2008-01-25,-0.98, 0.47, 10.35, 1.99, 1.67, 7.50, repro,
2008-01-26,1.24, -0.43, 0.00, 2.04, 1.74, 7.79, repro,
2008-01-27,1.94, -0.22, 6.70, 1.96, 1.66, 7.44, repro,
2008-01-28,-0.01, 1.26, 13.52, 1.95, 1.65, 7.35, repro,
2008-01-29,0.72, -1.58, 10.83, 2.11, 1.74, 7.99, repro,
2008-01-30,0.29, -0.57, 11.64, 2.10, 1.73, 7.81, repro,
2008-01-31,0.97, -0.94, 8.58, 1.99, 1.67, 7.53, repro,
2008-02-01,1.03, -1.04, 7.95, 2.00, 1.68, 7.58, repro,
2008-02-02,1.23, 0.71, 0.78, 1.99, 1.67, 7.54, repro,
2008-02-03,1.21, 0.42, 18.73, 1.99, 1.67, 7.52, repro,
2008-02-04,0.11, -1.40, 4.65, 1.92, 1.62, 7.30, repro,
2008-02-05,0.66, -1.66, 12.07, 2.02, 1.68, 7.51, repro,
2008-02-06,1.38, -1.07, 10.68, 2.06, 1.72, 7.71, repro,
2008-02-07,0.05, -1.84, 7.54, 1.99, 1.69, 7.55, repro,
2008-02-08,1.13, -2.48, 2.46, 1.94, 1.64, 7.38, repro,
2008-02-09,0.07, -3.35, 4.14, 1.96, 1.63, 7.39, repro,
2008-02-10,0.46, -0.98, -0.66, 1.92, 1.60, 7.22, repro,
2008-02-11,2.36, -1.98, 6.27, 1.91, 1.61, 7.24, repro,
2008-02-12,0.67, -1.32, 1.64, 1.92, 1.62, 7.27, repro,
2008-02-13,0.57, -1.58, 5.47, 1.91, 1.62, 7.23, repro,
2008-02-14,-0.17, 0.36, 10.30, 1.91, 1.62, 7.22, repro,
2008-02-15,1.14, -0.60, 4.41, 1.97, 1.63, 7.43, repro,
2008-02-16,0.77, -1.23, 6.40, 1.92, 1.61, 7.21, repro,
2008-02-17,0.86, -0.99, 4.69, 1.92, 1.62, 7.26, repro,
2008-02-18,1.28, -1.20, 3.32, 1.92, 1.63, 7.28, repro,
2008-02-19,0.54, -1.39, 5.09, 1.91, 1.62, 7.24, repro,
2008-02-20,0.45, -1.38, 2.07, 1.93, 1.60, 7.25, repro,
2008-02-21,0.73, -0.64, 4.63, 1.93, 1.61, 7.26, repro,
2008-02-22,1.41, -1.22, 7.95, 1.93, 1.60, 7.26, repro,
2008-02-23,0.98, -1.19, 6.43, 1.92, 1.61, 7.28, repro,
2008-02-24,1.29, -2.78, 1.51, 1.93, 1.62, 7.31, repro,
2008-02-25,0.80, -0.56, 5.63, 1.93, 1.62, 7.27, repro,
2008-02-26,1.64, -0.31, -1.66, 1.93, 1.61, 7.23, repro,
2008-02-27,0.58, -0.69, -3.89, 1.94, 1.61, 7.28, repro,
2008-02-28,1.77, -1.82, 4.00, 1.95, 1.66, 7.42, repro,
2008-02-29,1.28, -2.31, -0.27, 1.92, 1.62, 7.25, repro,
2008-03-01,0.81, -2.35, -1.27, 1.96, 1.66, 7.44, repro,
2008-03-02,1.18, -1.98, 4.70, 1.96, 1.64, 7.39, repro,
2008-03-03,1.94, -1.86, 0.19, 1.97, 1.64, 7.43, repro,
2008-03-04,0.91, -2.36, 4.00, 1.97, 1.65, 7.48, repro,
2008-03-05,0.75, -1.24, 0.56, 2.00, 1.70, 7.53, repro,
2008-03-06,1.62, -1.86, 0.93, 1.99, 1.71, 7.61, repro,
2008-03-07,1.55, -2.29, -3.01, 1.96, 1.65, 7.44, repro,
2008-03-08,-0.09, -2.13, 2.47, 1.99, 1.70, 7.66, repro,
2008-03-09,1.91, -1.66, -0.53, 1.97, 1.65, 7.52, repro,
2008-03-10,1.07, -1.18, 1.64, 1.93, 1.61, 7.31, repro,
2008-03-11,1.20, -1.69, -1.87, 1.96, 1.64, 7.46, repro,
2008-03-12,1.25, -1.55, 4.97, 1.95, 1.64, 7.41, repro,
2008-03-13,0.98, -1.86, 9.45, 1.99, 1.69, 7.62, repro,
2008-03-14,-0.29, -2.35, 7.82, 2.00, 1.69, 7.69, repro,
2008-03-15,0.63, -2.25, 8.66, 1.96, 1.64, 7.45, repro,
2008-03-16,1.04, -0.91, 8.32, 2.00, 1.70, 7.72, repro,
2008-03-17,-0.17, -1.48, 6.46, 2.06, 1.79, 7.89, repro,
2008-03-18,1.17, -2.36, 4.45, 1.96, 1.68, 7.41, repro,
2008-03-19,1.45, -1.89, 7.28, 1.99, 1.68, 7.50, repro,
2008-03-20,1.33, -1.43, 4.85, 1.96, 1.65, 7.32, repro,
2008-03-21,0.66, -2.31, 3.14, 1.99, 1.70, 7.52, repro,
2008-03-22,1.34, -1.52, -1.55, 2.00, 1.70, 7.52, repro,
2008-03-23,1.88, -1.15, -5.44, 1.99, 1.68, 7.46, repro,
2008-03-24,1.16, -1.82, 2.40, 1.95, 1.64, 7.27, repro,
2008-03-25,0.23, -3.33, 9.23, 2.00, 1.66, 7.30, repro,
2008-03-26,2.82, -0.65, 3.43, 2.01, 1.66, 7.37, repro,
2008-03-27,0.18, -0.37, 10.26, 2.02, 1.67, 7.38, repro,
2008-03-28,0.71, -1.01, 6.42, 1.94, 1.62, 7.16, repro,
2008-03-29,0.65, -2.51, 4.16, 1.94, 1.61, 7.14, repro,
2008-03-30,0.68, -0.83, 10.25, 1.94, 1.61, 7.10, repro,
2008-03-31,1.64, -2.69, 9.10, 1.93, 1.60, 7.09, repro,
2008-04-01,1.28, -1.05, 5.97, 1.95, 1.61, 7.16, repro,
2008-04-02,1.87, -1.90, 8.80, 1.99, 1.62, 7.24, repro,
2008-04-03,2.12, -1.59, 8.68, 1.94, 1.61, 7.12, repro,
2008-04-04,0.96, -1.32, 8.27, 1.93, 1.61, 7.08, repro,
2008-04-05,1.89, -1.48, 10.14, 1.94, 1.60, 7.09, repro,
2008-04-06,-0.01, -1.09, 12.14, 1.95, 1.61, 7.17, repro,
2008-04-07,0.63, -1.96, 5.36, 1.95, 1.62, 7.17, repro,
2008-04-08,1.00, -1.77, 4.87, 1.94, 1.60, 7.10, repro,
2008-04-09,0.70, -0.67, 7.78, 1.95, 1.61, 7.15, repro,
2008-04-10,1.70, -1.04, 7.77, 1.93, 1.60, 7.07, repro,
2008-04-11,1.98, -3.41, 1.89, 1.95, 1.61, 7.15, repro,
2008-04-12,2.01, -2.29, -2.72, 1.95, 1.61, 7.19, repro,
2008-04-13,0.83, -1.51, -0.98, 1.95, 1.60, 7.14, repro,
2008-04-14,1.81, -1.27, -0.36, 1.95, 1.60, 7.14, repro,
2008-04-15,1.08, -1.41, 8.20, 1.96, 1.64, 7.26, repro,
2008-04-16,2.78, -1.16, 8.06, 1.97, 1.64, 7.28, repro,
2008-04-17,2.10, -1.60, 7.24, 1.97, 1.64, 7.32, repro,
2008-04-18,0.88, -1.70, 2.11, 1.94, 1.60, 7.13, repro,
2008-04-19,1.64, -2.48, 2.45, 1.94, 1.60, 7.14, repro,
2008-04-20,0.16, -0.17, 5.45, 1.96, 1.61, 7.20, repro,
2008-04-21,1.44, -2.17, 7.40, 1.94, 1.59, 7.13, repro,
2008-04-22,1.66, -1.45, 2.38, 1.95, 1.60, 7.16, repro,
2008-04-23,1.58, -1.23, 3.06, 2.02, 1.67, 7.59, repro,
2008-04-24,1.29, -1.93, 7.08, 1.98, 1.64, 7.35, repro,
2008-04-25,1.51, -2.30, 2.68, 1.96, 1.60, 7.17, repro,
2008-04-26,1.37, -0.76, 1.84, 2.03, 1.64, 7.38, repro,
2008-04-27,1.49, -2.14, -2.10, 2.02, 1.64, 7.36, repro,
2008-04-28,1.24, -1.49, 0.63, 2.03, 1.64, 7.38, repro,
2008-04-29,1.13, -1.55, 4.17, 2.08, 1.66, 7.48, repro,
2008-04-30,3.08, -0.73, 7.28, 2.01, 1.63, 7.43, repro,
2008-05-01,3.17, -1.65, 5.79, 2.02, 1.63, 7.47, repro,
2008-05-02,1.62, -3.63, 4.77, 2.01, 1.63, 7.42, repro,
2008-05-03,2.14, -1.74, 3.03, 2.02, 1.63, 7.48, repro,
2008-05-04,0.76, -2.39, 6.27, 1.98, 1.60, 7.25, repro,
2008-05-05,1.98, -1.33, 0.96, 2.02, 1.64, 7.48, repro,
2008-05-06,3.14, -0.74, 8.25, 2.02, 1.64, 7.50, repro,
2008-05-07,2.38, -2.35, 10.41, 1.98, 1.61, 7.22, repro,
2008-05-08,1.67, -2.07, 7.11, 1.99, 1.65, 7.29, repro,
2008-05-09,1.68, -2.38, 6.08, 2.01, 1.64, 7.34, repro,
2008-05-10,1.95, -3.17, 2.50, 1.97, 1.60, 7.20, repro,
2008-05-11,0.59, -1.35, 8.96, 2.00, 1.64, 7.31, repro,
2008-05-12,0.98, -1.49, 9.70, 2.02, 1.65, 7.46, repro,
2008-05-13,2.13, -2.64, 7.29, 1.97, 1.61, 7.19, repro,
2008-05-14,1.37, -2.50, 7.39, 1.97, 1.61, 7.19, repro,
2008-05-15,1.86, -1.04, 0.91, 1.98, 1.61, 7.23, repro,
2008-05-16,1.10, -1.60, -1.73, 1.98, 1.61, 7.19, repro,
2008-05-17,1.78, -1.79, 2.22, 1.98, 1.61, 7.21, repro,